Location: Newark
(26.8229°N, 81.7649°W)
Time: 17:28:12
(UTC+00:00)

Hubble Space Telescope - Pass Details

Date: 02 February 2020
Orbit: 536 x 540 km, 28.5° (Epoch: 21 February)

Event Time Altitude Azimuth Distance (km) Brightness Sun altitude
Exits shadow 09:50:46 22° 87° (E) 1,185 3.1 -31.7°
Drops below altitude 10° 09:52:20 10° 82° (E) 1,777 4.3 -31.3°
Sets 09:54:36 0° 80° (E) 2,669 5.4 -30.8°
